Regional Weather Roundup
Issued by NWS

Home | Current Version | Previous Version | Text Only | Print | Product List | Glossary Off
Versions: 1 2 3 4 5 6 7 8 9 10 11 12 13 14 15 16 17 18 19 20 21 22 23 24 25 26 27 28 29 30 31 32 33 34 35 36 37 38 39 40 41 42 43 44 45 46 47 48 49 50

000
ASUS43 KTOP 280208
RWRKS

WEATHER ROUNDUP FOR KANSAS
NATIONAL WEATHER SERVICE GOODLAND KS
900 PM CDT MON JUL 27 2015

NOTE:  "FAIR" INDICATES FEW OR NO CLOUDS BELOW 12,000 FEET WITH NO
SIGNIFICANT WEATHER AND/OR OBSTRUCTIONS TO VISIBILITY.

KSZ001>006-013>018-027>032-041>047-280300-
NORTHWEST KANSAS

CITY           SKY/WX    TMP DP  RH WIND       PRES   REMARKS
GOODLAND       PTCLDY    83  69  62 SE13      29.76F
HAYS           CLEAR     88  66  48 SE17      29.78S
HILL CITY      CLEAR     87  68  52 SE14      29.75F
RUSSELL        CLEAR     85  68  56 SE13      29.78S
$$

KSZ061>065-074>080-084>089-280300-
SOUTHWEST KANSAS

CITY           SKY/WX    TMP DP  RH WIND       PRES   REMARKS
DODGE CITY     PTCLDY    87  67  51 S15G23    29.82S
ELKHART          N/A     87  62  43 S17         N/A
GARDEN CITY    PTCLDY    85  67  54 S13       29.80R
GREAT BEND     CLEAR     90  64  43 S15       29.79S
LIBERAL        PTCLDY    90  63  40 S17G23    29.83R
PRATT          CLEAR     88  63  42 S10       29.85R
$$

KSZ066>073-081>083-090>101-280300-
SOUTHEAST KANSAS

CITY           SKY/WX    TMP DP  RH WIND       PRES   REMARKS
CHANUTE        CLEAR     84  75  74 S6        29.88S
COFFEYVILLE    CLEAR     86  76  71 SE7       29.87S HX  96
HUTCHINSON     CLEAR     89  63  41 SE15      29.82R
MEDICINE LODGE   N/A     89  72  56 SE10      29.82R HX  96
NEWTON         CLEAR     88  64  45 S16       29.87F
PARSONS        CLEAR     85  75  72 S5        29.89S
WICHITA INTL   PTCLDY    87  66  49 S12       29.84R
WICHITA JABRA  CLEAR     87  70  56 S17       29.84F
WICHITA MCCONL CLEAR     87  71  59 SE13      29.85S
WINFIELD       CLEAR     85  74  69 SE12      29.87S
$$

KSZ007>012-019>026-033>040-048>060-102>105-280300-
NORTHEAST KANSAS

CITY           SKY/WX    TMP DP  RH WIND       PRES   REMARKS
CONCORDIA      CLEAR     82  68  62 SE10      29.81S
EMPORIA        CLEAR     85  70  60 S13       29.85F
LAWRENCE       CLEAR     82  75  79 SE7       29.86S
MANHATTAN      CLEAR     85  71  63 S7        29.82R
MARYSVILLE     CLEAR     82  73  74 SE7       29.82S
OLATHE IND     CLEAR     86  74  67 SE7       29.89R
OLATHE EXE     CLEAR     84  74  71 SE6       29.89R
SALINA         CLEAR     88  63  43 SE12      29.80S
TOPEKA BILLARD CLEAR     85  73  67 SE7       29.85R
TOPEKA FORBES  CLEAR     85  72  65 SE6       29.86R
$$


USA.gov is the U.S. government's official web portal to all federal, state and local government web resources and services.